Location: Arboyeti
(42.1122°N, 44.6017°E)
Time: 20:35:13
(UTC+00:00)

Cosmos 1954 Rocket - Pass Details

Date: 19 April 2021
Orbit: 752 x 781 km, 74.0° (Epoch: 18 May)

Event Time Altitude Azimuth Distance (km) Brightness Sun altitude
Exits shadow 18:54:22 65° 317° (NW) 825 4.2 -29.1°
Drops below altitude 10° 18:59:11 10° 15° (NNE) 2,283 6.9 -29.6°
Sets 19:01:34 0° 18° (NNE) 3,213 7.7 -29.9°
